TimeEST,TemperatureF,Dew PointF,Humidity,Sea Level PressureIn,VisibilityMPH,Wind Direction,Wind SpeedMPH,Gust SpeedMPH,PrecipitationIn,Events,Conditions,WindDirDegrees,DateUTC
12:54 AM,33.1,26.1,75,29.87,10.0,West,3.5,-,0.00,,Light Drizzle,260,2013-02-24 05:54:00
1:54 AM,33.1,26.1,75,29.86,10.0,Calm,Calm,-,0.00,,Overcast,0,2013-02-24 06:54:00
2:07 AM,33.8,26.6,75,29.85,10.0,Calm,Calm,-,N/A,,Overcast,0,2013-02-24 07:07:00
2:54 AM,33.1,26.1,75,29.85,9.0,Calm,Calm,-,N/A,,Overcast,0,2013-02-24 07:54:00
3:54 AM,33.1,26.1,75,29.86,10.0,WSW,4.6,-,N/A,,Overcast,240,2013-02-24 08:54:00
4:54 AM,32.0,25.0,75,29.85,10.0,SW,3.5,-,N/A,,Overcast,220,2013-02-24 09:54:00
5:54 AM,32.0,24.1,73,29.85,10.0,West,4.6,-,N/A,,Overcast,260,2013-02-24 10:54:00
6:54 AM,32.0,24.1,73,29.86,10.0,West,5.8,-,N/A,,Overcast,260,2013-02-24 11:54:00
7:54 AM,32.0,24.1,73,29.87,10.0,West,8.1,-,N/A,,Overcast,260,2013-02-24 12:54:00
8:54 AM,33.1,21.9,64,29.86,10.0,West,8.1,-,N/A,,Overcast,270,2013-02-24 13:54:00
9:54 AM,32.0,23.0,69,29.86,6.0,West,6.9,-,0.00,Snow,Light Snow,260,2013-02-24 14:54:00
10:54 AM,33.1,23.0,66,29.86,9.0,West,9.2,-,0.00,Snow,Light Snow,260,2013-02-24 15:54:00
11:54 AM,32.0,24.1,73,29.87,9.0,WSW,13.8,-,0.00,Snow,Light Snow,250,2013-02-24 16:54:00
12:54 PM,33.1,24.1,70,29.87,7.0,West,12.7,-,0.00,Snow,Light Snow,260,2013-02-24 17:54:00
1:09 PM,33.8,24.8,70,29.87,2.0,West,12.7,-,0.00,Snow,Light Snow,270,2013-02-24 18:09:00
1:24 PM,32.0,26.6,80,29.87,1.5,West,11.5,-,0.00,Snow,Light Snow,270,2013-02-24 18:24:00
1:41 PM,30.2,26.6,86,29.87,0.8,West,9.2,-,0.01,Snow,Light Snow,270,2013-02-24 18:41:00
1:54 PM,30.9,27.0,85,29.88,1.0,WSW,9.2,-,0.01,Snow,Light Snow,250,2013-02-24 18:54:00
2:12 PM,30.2,26.6,86,29.87,0.8,WSW,9.2,-,0.00,Snow,Light Snow,250,2013-02-24 19:12:00
2:24 PM,30.2,26.6,86,29.87,1.0,WSW,10.4,-,0.01,Snow,Light Snow,250,2013-02-24 19:24:00
2:54 PM,32.0,27.0,82,29.88,0.8,WSW,11.5,-,0.01,Snow,Light Snow,250,2013-02-24 19:54:00
3:19 PM,30.2,26.6,86,29.88,0.5,West,12.7,-,0.01,Fog-Snow,Snow,270,2013-02-24 20:19:00
3:54 PM,30.9,26.1,82,29.91,0.8,West,13.8,-,0.02,Snow,Light Snow,280,2013-02-24 20:54:00
4:03 PM,30.2,26.6,86,29.90,0.8,West,10.4,-,0.01,Snow,Light Snow,280,2013-02-24 21:03:00
4:47 PM,30.2,26.6,86,29.91,0.8,West,10.4,-,0.03,Snow,Light Snow,270,2013-02-24 21:47:00
4:54 PM,30.0,27.0,88,29.92,0.8,West,10.4,-,0.03,Snow,Light Snow,270,2013-02-24 21:54:00
5:11 PM,30.2,26.6,86,29.93,1.0,West,11.5,-,0.00,Snow,Light Snow,270,2013-02-24 22:11:00
5:34 PM,30.2,26.6,86,29.93,1.5,West,11.5,-,0.01,Snow,Light Snow,270,2013-02-24 22:34:00
5:47 PM,30.2,26.6,86,29.94,2.5,West,10.4,-,0.01,Snow,Light Snow,270,2013-02-24 22:47:00
5:54 PM,30.9,27.0,85,29.95,4.0,West,8.1,-,0.01,Snow,Light Snow,260,2013-02-24 22:54:00
6:06 PM,30.2,26.6,86,29.95,2.5,West,6.9,-,0.00,Snow,Light Snow,260,2013-02-24 23:06:00
6:15 PM,30.2,26.6,86,29.95,1.2,West,8.1,-,0.00,Snow,Light Snow,260,2013-02-24 23:15:00
6:20 PM,30.2,26.6,86,29.95,2.0,WSW,8.1,-,0.00,Snow,Light Snow,250,2013-02-24 23:20:00
6:30 PM,30.2,26.6,86,29.96,4.0,WSW,8.1,-,0.00,Snow,Light Snow,250,2013-02-24 23:30:00
6:46 PM,30.2,26.6,86,29.96,4.0,WSW,9.2,-,0.00,Snow,Light Snow,250,2013-02-24 23:46:00
6:54 PM,30.0,26.1,85,29.97,3.0,WSW,6.9,-,0.00,Snow,Light Snow,250,2013-02-24 23:54:00
7:54 PM,30.0,26.1,85,29.99,6.0,WSW,8.1,-,0.00,Snow,Light Snow,250,2013-02-25 00:54:00
8:54 PM,30.0,24.1,79,30.01,9.0,West,10.4,-,0.00,Snow,Light Snow,260,2013-02-25 01:54:00
9:54 PM,30.9,25.0,79,30.00,7.0,WSW,9.2,-,0.00,Snow,Light Snow,250,2013-02-25 02:54:00
10:54 PM,30.9,26.1,82,30.00,5.0,WSW,13.8,-,0.01,Snow,Light Snow,250,2013-02-25 03:54:00
11:12 PM,30.2,26.6,86,30.00,5.0,West,12.7,-,0.00,Snow,Light Snow,260,2013-02-25 04:12:00
11:54 PM,30.9,27.0,85,30.01,4.0,West,11.5,-,0.00,Snow,Light Snow,260,2013-02-25 04:54:00